Year,Month,Day,Hour,Minute,Value (Times are PST for temperature in C)
2010,05,23,00,00,9.20
2010,05,23,00,01,9.20
2010,05,23,00,02,9.10
2010,05,23,00,03,9.10
2010,05,23,00,04,9.00
2010,05,23,00,05,9.00
2010,05,23,00,06,8.90
2010,05,23,00,07,8.80
2010,05,23,00,08,8.80
2010,05,23,00,09,8.70
2010,05,23,00,10,8.70
2010,05,23,00,11,8.70
2010,05,23,00,12,8.70
2010,05,23,00,13,8.70
2010,05,23,00,14,8.70
2010,05,23,00,15,8.70
2010,05,23,00,16,8.60
2010,05,23,00,17,8.60
2010,05,23,00,18,8.50
2010,05,23,00,19,8.40
2010,05,23,00,20,8.40
2010,05,23,00,21,8.30
2010,05,23,00,22,8.20
2010,05,23,00,23,8.10
2010,05,23,00,24,8.00
2010,05,23,00,25,7.90
2010,05,23,00,26,7.90
2010,05,23,00,27,7.80
2010,05,23,00,28,7.80
2010,05,23,00,29,7.70
2010,05,23,00,30,7.70
2010,05,23,00,31,7.60
2010,05,23,00,32,7.60
2010,05,23,00,33,7.50
2010,05,23,00,34,7.50
2010,05,23,00,35,7.40
2010,05,23,00,36,7.40
2010,05,23,00,37,7.40
2010,05,23,00,38,7.40
2010,05,23,00,39,7.40
2010,05,23,00,40,7.40
2010,05,23,00,41,7.40
2010,05,23,00,42,7.40
2010,05,23,00,43,7.30
2010,05,23,00,44,7.30
2010,05,23,00,45,7.30
2010,05,23,00,46,7.30
2010,05,23,00,47,7.30
2010,05,23,00,48,7.30
2010,05,23,00,49,7.30
2010,05,23,00,50,7.40
2010,05,23,00,51,7.40
2010,05,23,00,52,7.40
2010,05,23,00,53,7.40
2010,05,23,00,54,7.40
2010,05,23,00,55,7.40
2010,05,23,00,56,7.40
2010,05,23,00,57,7.40
2010,05,23,00,58,7.40
2010,05,23,00,59,7.40
2010,05,23,01,00,7.30
2010,05,23,01,01,7.30
2010,05,23,01,02,7.30
2010,05,23,01,03,7.30
2010,05,23,01,04,7.30
2010,05,23,01,05,7.20
2010,05,23,01,06,7.30
2010,05,23,01,07,7.30
2010,05,23,01,08,7.30
2010,05,23,01,09,7.30
2010,05,23,01,10,7.40
2010,05,23,01,11,7.50
2010,05,23,01,12,7.60
2010,05,23,01,13,7.70
2010,05,23,01,14,7.80
2010,05,23,01,15,8.00
2010,05,23,01,16,8.10
2010,05,23,01,17,8.20
2010,05,23,01,18,8.30
2010,05,23,01,19,8.40
2010,05,23,01,20,8.50
2010,05,23,01,21,8.70
2010,05,23,01,22,8.80
2010,05,23,01,23,8.80
2010,05,23,01,24,8.80
2010,05,23,01,25,8.90
2010,05,23,01,26,9.10
2010,05,23,01,27,9.30
2010,05,23,01,28,9.30
2010,05,23,01,29,9.40
2010,05,23,01,30,9.50
2010,05,23,01,31,9.50
2010,05,23,01,32,9.60
2010,05,23,01,33,9.60
2010,05,23,01,34,9.60
2010,05,23,01,35,9.60
2010,05,23,01,36,9.70
2010,05,23,01,37,9.70
2010,05,23,01,38,9.70
2010,05,23,01,39,9.70
2010,05,23,01,40,9.70
2010,05,23,01,41,9.70
2010,05,23,01,42,9.70
2010,05,23,01,43,9.70
2010,05,23,01,44,9.60
2010,05,23,01,45,9.60
2010,05,23,01,46,9.60
2010,05,23,01,47,9.70
2010,05,23,01,48,9.70
2010,05,23,01,49,9.60
2010,05,23,01,50,9.60
2010,05,23,01,51,9.60
2010,05,23,01,52,9.60
2010,05,23,01,53,9.50
2010,05,23,01,54,9.40
2010,05,23,01,55,9.40
2010,05,23,01,56,9.30
2010,05,23,01,57,9.20
2010,05,23,01,58,9.20
2010,05,23,01,59,9.00
2010,05,23,02,00,8.90
2010,05,23,02,01,8.80
2010,05,23,02,02,8.70
2010,05,23,02,03,8.70
2010,05,23,02,04,8.60
2010,05,23,02,05,8.50
2010,05,23,02,06,8.40
2010,05,23,02,07,8.40
2010,05,23,02,08,8.40
2010,05,23,02,09,8.30
2010,05,23,02,10,8.30
2010,05,23,02,11,8.30
2010,05,23,02,12,8.20
2010,05,23,02,13,8.20
2010,05,23,02,14,8.20
2010,05,23,02,15,8.20
2010,05,23,02,16,8.20
2010,05,23,02,17,8.20
2010,05,23,02,18,8.20
2010,05,23,02,19,8.20
2010,05,23,02,20,8.20
2010,05,23,02,21,8.20
2010,05,23,02,22,8.30
2010,05,23,02,23,8.40
2010,05,23,02,24,8.40
2010,05,23,02,25,8.50
2010,05,23,02,26,8.50
2010,05,23,02,27,8.60
2010,05,23,02,28,8.60
2010,05,23,02,29,8.70
2010,05,23,02,30,8.70
2010,05,23,02,31,8.70
2010,05,23,02,32,8.70
2010,05,23,02,33,8.70
2010,05,23,02,34,8.60
2010,05,23,02,35,8.60
2010,05,23,02,36,8.60
2010,05,23,02,37,8.60
2010,05,23,02,38,8.50
2010,05,23,02,39,8.50
2010,05,23,02,40,8.50
2010,05,23,02,41,8.40
2010,05,23,02,42,8.40
2010,05,23,02,43,8.40
2010,05,23,02,44,8.40
2010,05,23,02,45,8.30
2010,05,23,02,46,8.30
2010,05,23,02,47,8.30
2010,05,23,02,48,8.30
2010,05,23,02,49,8.30
2010,05,23,02,50,8.30
2010,05,23,02,51,8.20
2010,05,23,02,52,8.20
2010,05,23,02,53,8.20
2010,05,23,02,54,8.20
2010,05,23,02,55,8.20
2010,05,23,02,56,8.20
2010,05,23,02,57,8.10
2010,05,23,02,58,8.10
2010,05,23,02,59,8.10
2010,05,23,03,00,8.10
2010,05,23,03,01,8.10
2010,05,23,03,02,8.10
2010,05,23,03,03,8.10
2010,05,23,03,04,8.20
2010,05,23,03,05,8.20
2010,05,23,03,06,8.20
2010,05,23,03,07,8.20
2010,05,23,03,08,8.20
2010,05,23,03,09,8.20
2010,05,23,03,10,8.20
2010,05,23,03,11,8.30
2010,05,23,03,12,8.30
2010,05,23,03,13,8.30
2010,05,23,03,14,8.20
2010,05,23,03,15,8.20
2010,05,23,03,16,8.20
2010,05,23,03,17,8.20
2010,05,23,03,18,8.20
2010,05,23,03,19,8.20
2010,05,23,03,20,8.20
2010,05,23,03,21,8.20
2010,05,23,03,22,8.20
2010,05,23,03,23,8.10
2010,05,23,03,24,8.10
2010,05,23,03,25,8.10
2010,05,23,03,26,8.10
2010,05,23,03,27,8.10
2010,05,23,03,28,8.10
2010,05,23,03,29,8.10
2010,05,23,03,30,8.10
2010,05,23,03,31,8.10
2010,05,23,03,32,8.10
2010,05,23,03,33,8.10
2010,05,23,03,34,8.10
2010,05,23,03,35,8.10
2010,05,23,03,36,8.00
2010,05,23,03,37,8.00
2010,05,23,03,38,8.00
2010,05,23,03,39,8.00
2010,05,23,03,40,8.00
2010,05,23,03,41,8.00
2010,05,23,03,42,8.00
2010,05,23,03,43,8.00
2010,05,23,03,44,8.00
2010,05,23,03,45,8.00
2010,05,23,03,46,7.90
2010,05,23,03,47,7.90
2010,05,23,03,48,7.90
2010,05,23,03,49,7.90
2010,05,23,03,50,7.90
2010,05,23,03,51,7.90
2010,05,23,03,52,7.90
2010,05,23,03,53,7.90
2010,05,23,03,54,7.90
2010,05,23,03,55,7.90
2010,05,23,03,56,7.80
2010,05,23,03,57,7.80
2010,05,23,03,58,7.80
2010,05,23,03,59,7.80
2010,05,23,04,00,7.80
2010,05,23,04,01,7.80
2010,05,23,04,02,7.80
2010,05,23,04,03,7.80
2010,05,23,04,04,7.80
2010,05,23,04,06,7.80
2010,05,23,04,08,7.80
2010,05,23,04,10,7.80
2010,05,23,04,11,7.80
2010,05,23,04,12,7.80
2010,05,23,04,13,7.80
2010,05,23,04,14,7.80
2010,05,23,04,15,7.80
2010,05,23,04,16,7.80
2010,05,23,04,17,7.80
2010,05,23,04,18,7.80
2010,05,23,04,19,7.80
2010,05,23,04,20,7.80
2010,05,23,04,21,7.80
2010,05,23,04,22,7.80
2010,05,23,04,23,7.80
2010,05,23,04,25,7.80
2010,05,23,04,27,7.80
2010,05,23,04,29,7.70
2010,05,23,04,30,7.80
2010,05,23,04,31,7.80
2010,05,23,04,32,7.80
2010,05,23,04,33,7.80
2010,05,23,04,34,7.80
2010,05,23,04,35,7.80
2010,05,23,04,36,7.80
2010,05,23,04,37,7.80
2010,05,23,04,38,7.80
2010,05,23,04,39,7.80
2010,05,23,04,40,7.80
2010,05,23,04,41,7.80
2010,05,23,04,42,7.80
2010,05,23,04,43,7.80
2010,05,23,04,44,7.80
2010,05,23,04,45,7.80
2010,05,23,04,46,7.80
2010,05,23,04,47,7.80
2010,05,23,04,48,7.70
2010,05,23,04,49,7.70
2010,05,23,04,50,7.70
2010,05,23,04,51,7.70
2010,05,23,04,52,7.70
2010,05,23,04,53,7.70
2010,05,23,04,54,7.70
2010,05,23,04,55,7.70
2010,05,23,04,56,7.70
2010,05,23,04,57,7.70
2010,05,23,04,58,7.70
2010,05,23,04,59,7.70
2010,05,23,05,00,7.60
2010,05,23,05,01,7.60
2010,05,23,05,02,7.60
2010,05,23,05,03,7.60
2010,05,23,05,04,7.70
2010,05,23,05,05,7.70
2010,05,23,05,06,7.70
2010,05,23,05,07,7.70
2010,05,23,05,08,7.70
2010,05,23,05,09,7.70
2010,05,23,05,10,7.70
2010,05,23,05,11,7.70
2010,05,23,05,12,7.70
2010,05,23,05,13,7.60
2010,05,23,05,14,7.60
2010,05,23,05,15,7.60
2010,05,23,05,16,7.60
2010,05,23,05,17,7.60
2010,05,23,05,18,7.60
2010,05,23,05,19,7.50
2010,05,23,05,20,7.50
2010,05,23,05,21,7.50
2010,05,23,05,22,7.50
2010,05,23,05,23,7.50
2010,05,23,05,24,7.40
2010,05,23,05,25,7.40
2010,05,23,05,26,7.40
2010,05,23,05,27,7.40
2010,05,23,05,28,7.40
2010,05,23,05,29,7.40
2010,05,23,05,30,7.40
2010,05,23,05,31,7.40
2010,05,23,05,32,7.40
2010,05,23,05,33,7.40
2010,05,23,05,34,7.40
2010,05,23,05,35,7.40
2010,05,23,05,36,7.40
2010,05,23,05,37,7.40
2010,05,23,05,38,7.40
2010,05,23,05,39,7.40
2010,05,23,05,40,7.40
2010,05,23,05,41,7.40
2010,05,23,05,42,7.40
2010,05,23,05,43,7.40
2010,05,23,05,44,7.40
2010,05,23,05,45,7.40
2010,05,23,05,46,7.40
2010,05,23,05,47,7.40
2010,05,23,05,48,7.40
2010,05,23,05,49,7.40
2010,05,23,05,50,7.40
2010,05,23,05,51,7.40
2010,05,23,05,52,7.30
2010,05,23,05,53,7.30
2010,05,23,05,54,7.30
2010,05,23,05,55,7.30
2010,05,23,05,56,7.30
2010,05,23,05,57,7.30
2010,05,23,05,58,7.30
2010,05,23,05,59,7.30
2010,05,23,06,00,7.30
2010,05,23,06,01,7.30
2010,05,23,06,02,7.30
2010,05,23,06,03,7.40
2010,05,23,06,04,7.40
2010,05,23,06,05,7.40
2010,05,23,06,06,7.40
2010,05,23,06,07,7.40
2010,05,23,06,08,7.40
2010,05,23,06,09,7.40
2010,05,23,06,10,7.40
2010,05,23,06,11,7.40
2010,05,23,06,12,7.40
2010,05,23,06,13,7.40
2010,05,23,06,14,7.40
2010,05,23,06,15,7.40
2010,05,23,06,16,7.40
2010,05,23,06,17,7.40
2010,05,23,06,18,7.40
2010,05,23,06,19,7.40
2010,05,23,06,20,7.40
2010,05,23,06,21,7.40
2010,05,23,06,22,7.40
2010,05,23,06,23,7.40
2010,05,23,06,24,7.40
2010,05,23,06,25,7.50
2010,05,23,06,26,7.50
2010,05,23,06,27,7.60
2010,05,23,06,28,7.60
2010,05,23,06,29,7.60
2010,05,23,06,30,7.70
2010,05,23,06,31,7.70
2010,05,23,06,32,7.70
2010,05,23,06,33,7.70
2010,05,23,06,34,7.80
2010,05,23,06,35,7.80
2010,05,23,06,36,7.80
2010,05,23,06,37,7.80
2010,05,23,06,38,7.80
2010,05,23,06,39,7.80
2010,05,23,06,40,7.80
2010,05,23,06,41,7.90
2010,05,23,06,42,7.90
2010,05,23,06,43,7.90
2010,05,23,06,44,7.90
2010,05,23,06,45,7.90
2010,05,23,06,46,7.90
2010,05,23,06,47,7.90
2010,05,23,06,48,7.90
2010,05,23,06,49,8.00
2010,05,23,06,50,8.00
2010,05,23,06,51,8.00
2010,05,23,06,52,8.00
2010,05,23,06,53,8.00
2010,05,23,06,54,8.10
2010,05,23,06,55,8.10
2010,05,23,06,56,8.10
2010,05,23,06,57,8.10
2010,05,23,06,58,8.10
2010,05,23,06,59,8.10
2010,05,23,07,00,8.10
2010,05,23,07,01,8.10
2010,05,23,07,02,8.10
2010,05,23,07,03,8.10
2010,05,23,07,04,8.10
2010,05,23,07,05,8.10
2010,05,23,07,06,8.20
2010,05,23,07,07,8.20
2010,05,23,07,08,8.20
2010,05,23,07,09,8.20
2010,05,23,07,10,8.20
2010,05,23,07,11,8.20
2010,05,23,07,12,8.20
2010,05,23,07,13,8.20
2010,05,23,07,14,8.20
2010,05,23,07,15,8.20
2010,05,23,07,16,8.30
2010,05,23,07,17,8.30
2010,05,23,07,18,8.30
2010,05,23,07,19,8.30
2010,05,23,07,20,8.30
2010,05,23,07,21,8.30
2010,05,23,07,22,8.30
2010,05,23,07,23,8.30
2010,05,23,07,24,8.30
2010,05,23,07,25,8.40
2010,05,23,07,26,8.40
2010,05,23,07,27,8.40
2010,05,23,07,28,8.40
2010,05,23,07,29,8.40
2010,05,23,07,30,8.50
2010,05,23,07,31,8.50
2010,05,23,07,32,8.50
2010,05,23,07,33,8.50
2010,05,23,07,34,8.60
2010,05,23,07,35,8.60
2010,05,23,07,36,8.60
2010,05,23,07,37,8.60
2010,05,23,07,38,8.60
2010,05,23,07,39,8.70
2010,05,23,07,40,8.70
2010,05,23,07,41,8.80
2010,05,23,07,42,8.80
2010,05,23,07,43,8.80
2010,05,23,07,44,8.80
2010,05,23,07,45,8.90
2010,05,23,07,46,8.90
2010,05,23,07,47,8.90
2010,05,23,07,48,9.00
2010,05,23,07,49,9.00
2010,05,23,07,50,9.10
2010,05,23,07,51,9.10
2010,05,23,07,52,9.20
2010,05,23,07,53,9.20
2010,05,23,07,54,9.20
2010,05,23,07,55,9.30
2010,05,23,07,56,9.30
2010,05,23,07,57,9.30
2010,05,23,07,58,9.40
2010,05,23,07,59,9.40
2010,05,23,08,00,9.40
2010,05,23,08,01,9.40
2010,05,23,08,02,9.50
2010,05,23,08,03,9.50
2010,05,23,08,04,9.60
2010,05,23,08,05,9.60
2010,05,23,08,06,9.60
2010,05,23,08,07,9.60
2010,05,23,08,08,9.60
2010,05,23,08,09,9.70
2010,05,23,08,10,9.80
2010,05,23,08,11,9.80
2010,05,23,08,12,9.80
2010,05,23,08,13,9.80
2010,05,23,08,14,9.80
2010,05,23,08,15,9.90
2010,05,23,08,16,9.90
2010,05,23,08,17,9.90
2010,05,23,08,18,9.90
2010,05,23,08,19,9.90
2010,05,23,08,20,9.90
2010,05,23,08,21,9.90
2010,05,23,08,22,9.90
2010,05,23,08,23,9.90
2010,05,23,08,24,9.90
2010,05,23,08,25,9.90
2010,05,23,08,26,9.90
2010,05,23,08,27,9.90
2010,05,23,08,28,9.90
2010,05,23,08,29,9.90
2010,05,23,08,30,10.00
2010,05,23,08,31,10.00
2010,05,23,08,32,10.10
2010,05,23,08,33,10.10
2010,05,23,08,34,10.10
2010,05,23,08,35,10.10
2010,05,23,08,36,10.10
2010,05,23,08,37,10.10
2010,05,23,08,38,10.10
2010,05,23,08,39,10.10
2010,05,23,08,40,10.20
2010,05,23,08,41,10.20
2010,05,23,08,42,10.30
2010,05,23,08,43,10.30
2010,05,23,08,44,10.30
2010,05,23,08,45,10.40
2010,05,23,08,46,10.40
2010,05,23,08,47,10.50
2010,05,23,08,48,10.50
2010,05,23,08,49,10.50
2010,05,23,08,50,10.60
2010,05,23,08,51,10.60
2010,05,23,08,52,10.60
2010,05,23,08,53,10.70
2010,05,23,08,54,10.70
2010,05,23,08,55,10.80
2010,05,23,08,56,10.80
2010,05,23,08,57,10.80
2010,05,23,08,58,10.80
2010,05,23,08,59,10.80
2010,05,23,09,00,10.80
2010,05,23,09,01,10.90
2010,05,23,09,02,10.90
2010,05,23,09,03,10.90
2010,05,23,09,04,10.90
2010,05,23,09,05,10.90
2010,05,23,09,06,10.90
2010,05,23,09,07,10.90
2010,05,23,09,08,10.90
2010,05,23,09,09,11.00
2010,05,23,09,10,11.00
2010,05,23,09,11,11.00
2010,05,23,09,12,11.00
2010,05,23,09,13,11.10
2010,05,23,09,14,11.10
2010,05,23,09,15,11.10
2010,05,23,09,16,11.10
2010,05,23,09,17,11.10
2010,05,23,09,18,11.10
2010,05,23,09,19,11.10
2010,05,23,09,20,11.10
2010,05,23,09,21,11.10
2010,05,23,09,22,11.10
2010,05,23,09,23,11.20
2010,05,23,09,24,11.20
2010,05,23,09,25,11.20
2010,05,23,09,26,11.20
2010,05,23,09,27,11.20
2010,05,23,09,28,11.20
2010,05,23,09,29,11.20
2010,05,23,09,30,11.20
2010,05,23,09,31,11.30
2010,05,23,09,32,11.30
2010,05,23,09,33,11.30
2010,05,23,09,34,11.30
2010,05,23,09,35,11.30
2010,05,23,09,36,11.30
2010,05,23,09,37,11.40
2010,05,23,09,38,11.40
2010,05,23,09,39,11.40
2010,05,23,09,40,11.40
2010,05,23,09,41,11.40
2010,05,23,09,42,11.50
2010,05,23,09,43,11.50
2010,05,23,09,44,11.60
2010,05,23,09,45,11.60
2010,05,23,09,46,11.60
2010,05,23,09,47,11.60
2010,05,23,09,48,11.70
2010,05,23,09,49,11.70
2010,05,23,09,50,11.80
2010,05,23,09,51,11.80
2010,05,23,09,52,11.80
2010,05,23,09,53,11.80
2010,05,23,09,54,11.80
2010,05,23,09,55,11.80
2010,05,23,09,56,11.80
2010,05,23,09,57,11.80
2010,05,23,09,58,11.70
2010,05,23,09,59,11.70
2010,05,23,10,00,11.70
2010,05,23,10,01,11.70
2010,05,23,10,02,11.60
2010,05,23,10,03,11.60
2010,05,23,10,04,11.50
2010,05,23,10,05,11.40
2010,05,23,10,06,11.30
2010,05,23,10,07,11.30
2010,05,23,10,08,11.20
2010,05,23,10,09,11.20
2010,05,23,10,10,11.30
2010,05,23,10,11,11.30
2010,05,23,10,12,11.30
2010,05,23,10,13,11.30
2010,05,23,10,14,11.40
2010,05,23,10,15,11.40
2010,05,23,10,16,11.40
2010,05,23,10,17,11.50
2010,05,23,10,18,11.50
2010,05,23,10,19,11.50
2010,05,23,10,20,11.50
2010,05,23,10,21,11.40
2010,05,23,10,22,11.30
2010,05,23,10,23,11.20
2010,05,23,10,24,11.20
2010,05,23,10,25,11.10
2010,05,23,10,26,11.10
2010,05,23,10,27,11.00
2010,05,23,10,28,11.00
2010,05,23,10,29,10.90
2010,05,23,10,30,10.90
2010,05,23,10,31,10.90
2010,05,23,10,32,10.90
2010,05,23,10,33,10.90
2010,05,23,10,34,10.90
2010,05,23,10,35,10.90
2010,05,23,10,36,10.90
2010,05,23,10,37,10.90
2010,05,23,10,38,10.90
2010,05,23,10,39,10.80
2010,05,23,10,40,10.80
2010,05,23,10,41,10.80
2010,05,23,10,42,10.80
2010,05,23,10,43,10.70
2010,05,23,10,44,10.60
2010,05,23,10,45,10.60
2010,05,23,10,46,10.50
2010,05,23,10,47,10.50
2010,05,23,10,48,10.50
2010,05,23,10,49,10.50
2010,05,23,10,50,10.50
2010,05,23,10,51,10.50
2010,05,23,10,52,10.50
2010,05,23,10,53,10.60
2010,05,23,10,54,10.60
2010,05,23,10,55,10.60
2010,05,23,10,56,10.60
2010,05,23,10,57,10.60
2010,05,23,10,58,10.60
2010,05,23,10,59,10.60
2010,05,23,11,00,10.60
2010,05,23,11,01,10.60
2010,05,23,11,02,10.60
2010,05,23,11,03,10.60
2010,05,23,11,04,10.70
2010,05,23,11,05,10.70
2010,05,23,11,06,10.70
2010,05,23,11,07,10.70
2010,05,23,11,08,10.70
2010,05,23,11,09,10.80
2010,05,23,11,10,10.80
2010,05,23,11,11,10.80
2010,05,23,11,12,10.80
2010,05,23,11,13,10.80
2010,05,23,11,14,10.80
2010,05,23,11,15,10.80
2010,05,23,11,16,10.90
2010,05,23,11,17,10.90
2010,05,23,11,18,10.90
2010,05,23,11,19,10.90
2010,05,23,11,20,10.90
2010,05,23,11,21,10.90
2010,05,23,11,22,10.90
2010,05,23,11,23,10.90
2010,05,23,11,24,10.90
2010,05,23,11,25,10.90
2010,05,23,11,26,11.00
2010,05,23,11,27,11.10
2010,05,23,11,28,11.10
2010,05,23,11,29,11.20
2010,05,23,11,30,11.30
2010,05,23,11,31,11.30
2010,05,23,11,32,11.30
2010,05,23,11,33,11.30
2010,05,23,11,34,11.30
2010,05,23,11,35,11.30
2010,05,23,11,36,11.30
2010,05,23,11,37,11.30
2010,05,23,11,38,11.30
2010,05,23,11,39,11.30
2010,05,23,11,40,11.30
2010,05,23,11,41,11.20
2010,05,23,11,42,11.20
2010,05,23,11,43,11.20
2010,05,23,11,44,11.20
2010,05,23,11,45,11.20
2010,05,23,11,46,11.20
2010,05,23,11,47,11.20
2010,05,23,11,48,11.10
2010,05,23,11,49,11.10
2010,05,23,11,50,11.10
2010,05,23,11,51,11.20
2010,05,23,11,52,11.10
2010,05,23,11,53,11.10
2010,05,23,11,54,11.10
2010,05,23,11,55,11.10
2010,05,23,11,56,11.10
2010,05,23,11,57,11.10
2010,05,23,11,58,11.20
2010,05,23,11,59,11.20
2010,05,23,12,00,11.20
2010,05,23,12,01,11.20
2010,05,23,12,02,11.20
2010,05,23,12,03,11.30
2010,05,23,12,04,11.30
2010,05,23,12,05,11.30
2010,05,23,12,06,11.20
2010,05,23,12,07,11.20
2010,05,23,12,08,11.30
2010,05,23,12,09,11.30
2010,05,23,12,10,11.40
2010,05,23,12,11,11.50
2010,05,23,12,12,11.50
2010,05,23,12,13,11.60
2010,05,23,12,14,11.60
2010,05,23,12,15,11.60
2010,05,23,12,16,11.70
2010,05,23,12,17,11.70
2010,05,23,12,18,11.70
2010,05,23,12,19,11.70
2010,05,23,12,20,11.70
2010,05,23,12,21,11.60
2010,05,23,12,22,11.60
2010,05,23,12,23,11.60
2010,05,23,12,24,11.60
2010,05,23,12,25,11.60
2010,05,23,12,26,11.60
2010,05,23,12,27,11.60
2010,05,23,12,28,11.50
2010,05,23,12,29,11.50
2010,05,23,12,30,11.40
2010,05,23,12,31,11.40
2010,05,23,12,32,11.50
2010,05,23,12,33,11.40
2010,05,23,12,34,11.40
2010,05,23,12,35,11.40
2010,05,23,12,36,11.40
2010,05,23,12,37,11.40
2010,05,23,12,38,11.40
2010,05,23,12,39,11.40
2010,05,23,12,40,11.40
2010,05,23,12,41,11.40
2010,05,23,12,42,11.40
2010,05,23,12,43,11.50
2010,05,23,12,44,11.60
2010,05,23,12,45,11.60
2010,05,23,12,46,11.70
2010,05,23,12,47,11.70
2010,05,23,12,48,11.70
2010,05,23,12,49,11.80
2010,05,23,12,50,11.80
2010,05,23,12,51,11.80
2010,05,23,12,52,11.90
2010,05,23,12,53,12.00
2010,05,23,12,54,12.00
2010,05,23,12,55,12.10
2010,05,23,12,56,12.10
2010,05,23,12,57,12.20
2010,05,23,12,58,12.20
2010,05,23,12,59,12.20
2010,05,23,13,00,12.20
2010,05,23,13,01,12.10
2010,05,23,13,02,12.20
2010,05,23,13,03,12.20
2010,05,23,13,04,12.20
2010,05,23,13,05,12.20
2010,05,23,13,06,12.20
2010,05,23,13,07,12.20
2010,05,23,13,08,12.30
2010,05,23,13,09,12.30
2010,05,23,13,10,12.40
2010,05,23,13,11,12.40
2010,05,23,13,12,12.50
2010,05,23,13,13,12.60
2010,05,23,13,14,12.60
2010,05,23,13,15,12.60
2010,05,23,13,16,12.60
2010,05,23,13,17,12.70
2010,05,23,13,18,12.70
2010,05,23,13,19,12.70
2010,05,23,13,20,12.70
2010,05,23,13,21,12.60
2010,05,23,13,22,12.50
2010,05,23,13,23,12.40
2010,05,23,13,24,12.40
2010,05,23,13,25,12.40
2010,05,23,13,26,12.40
2010,05,23,13,27,12.40
2010,05,23,13,28,12.40
2010,05,23,13,29,12.50
2010,05,23,13,30,12.60
2010,05,23,13,31,12.60
2010,05,23,13,32,12.60
2010,05,23,13,33,12.70
2010,05,23,13,34,12.70
2010,05,23,13,35,12.70
2010,05,23,13,36,12.70
2010,05,23,13,37,12.70
2010,05,23,13,38,12.80
2010,05,23,13,39,12.80
2010,05,23,13,40,12.90
2010,05,23,13,41,12.90
2010,05,23,13,42,12.90
2010,05,23,13,43,12.90
2010,05,23,13,44,12.90
2010,05,23,13,45,12.80
2010,05,23,13,46,12.80
2010,05,23,13,47,12.80
2010,05,23,13,48,12.80
2010,05,23,13,49,12.80
2010,05,23,13,50,12.80
2010,05,23,13,51,12.70
2010,05,23,13,52,12.70
2010,05,23,13,53,12.70
2010,05,23,13,54,12.70
2010,05,23,13,55,12.60
2010,05,23,13,56,12.60
2010,05,23,13,57,12.50
2010,05,23,13,58,12.50
2010,05,23,13,59,12.40
2010,05,23,14,00,12.40
2010,05,23,14,01,12.30
2010,05,23,14,02,12.30
2010,05,23,14,03,12.20
2010,05,23,14,04,12.20
2010,05,23,14,05,12.10
2010,05,23,14,06,12.10
2010,05,23,14,07,12.10
2010,05,23,14,08,12.10
2010,05,23,14,09,12.00
2010,05,23,14,10,12.00
2010,05,23,14,11,12.00
2010,05,23,14,12,12.00
2010,05,23,14,13,11.90
2010,05,23,14,14,11.90
2010,05,23,14,15,11.90
2010,05,23,14,16,11.90
2010,05,23,14,17,11.90
2010,05,23,14,18,11.80
2010,05,23,14,19,11.80
2010,05,23,14,20,11.80
2010,05,23,14,21,11.90
2010,05,23,14,22,11.90
2010,05,23,14,23,11.90
2010,05,23,14,24,11.80
2010,05,23,14,25,11.80
2010,05,23,14,26,11.80
2010,05,23,14,27,11.80
2010,05,23,14,28,11.80
2010,05,23,14,29,11.80
2010,05,23,14,30,11.80
2010,05,23,14,31,11.80
2010,05,23,14,32,11.90
2010,05,23,14,33,12.00
2010,05,23,14,34,12.10
2010,05,23,14,35,12.10
2010,05,23,14,36,12.10
2010,05,23,14,37,12.20
2010,05,23,14,38,12.20
2010,05,23,14,39,12.40
2010,05,23,14,40,12.50
2010,05,23,14,41,12.70
2010,05,23,14,42,12.80
2010,05,23,14,43,12.90
2010,05,23,14,44,13.00
2010,05,23,14,45,13.10
2010,05,23,14,46,13.10
2010,05,23,14,47,13.20
2010,05,23,14,48,13.20
2010,05,23,14,49,13.20
2010,05,23,14,50,13.20
2010,05,23,14,51,13.20
2010,05,23,14,52,13.20
2010,05,23,14,53,13.20
2010,05,23,14,54,13.20
2010,05,23,14,55,13.20
2010,05,23,14,56,13.20
2010,05,23,14,57,13.20
2010,05,23,14,58,13.30
2010,05,23,14,59,13.30
2010,05,23,15,00,13.30
2010,05,23,15,01,13.30
2010,05,23,15,02,13.40
2010,05,23,15,03,13.50
2010,05,23,15,04,13.60
2010,05,23,15,05,13.70
2010,05,23,15,06,13.70
2010,05,23,15,07,13.60
2010,05,23,15,08,13.60
2010,05,23,15,09,13.60
2010,05,23,15,10,13.50
2010,05,23,15,11,13.30
2010,05,23,15,12,13.30
2010,05,23,15,13,13.30
2010,05,23,15,14,13.30
2010,05,23,15,15,13.30
2010,05,23,15,16,13.30
2010,05,23,15,17,13.30
2010,05,23,15,18,13.30
2010,05,23,15,19,13.40
2010,05,23,15,20,13.40
2010,05,23,15,21,13.40
2010,05,23,15,22,13.40
2010,05,23,15,23,13.50
2010,05,23,15,24,13.50
2010,05,23,15,25,13.50
2010,05,23,15,26,13.60
2010,05,23,15,27,13.60
2010,05,23,15,28,13.70
2010,05,23,15,29,13.70
2010,05,23,15,30,13.60
2010,05,23,15,31,13.60
2010,05,23,15,32,13.60
2010,05,23,15,33,13.70
2010,05,23,15,34,13.70
2010,05,23,15,35,13.70
2010,05,23,15,36,13.60
2010,05,23,15,37,13.60
2010,05,23,15,38,13.70
2010,05,23,15,39,13.60
2010,05,23,15,40,13.50
2010,05,23,15,41,13.40
2010,05,23,15,42,13.30
2010,05,23,15,43,13.30
2010,05,23,15,44,13.20
2010,05,23,15,45,13.20
2010,05,23,15,46,13.20
2010,05,23,15,47,13.20
2010,05,23,15,48,13.10
2010,05,23,15,49,13.10
2010,05,23,15,50,13.10
2010,05,23,15,51,13.20
2010,05,23,15,52,13.10
2010,05,23,15,53,13.10
2010,05,23,15,54,13.10
2010,05,23,15,55,13.00
2010,05,23,15,56,12.90
2010,05,23,15,57,12.80
2010,05,23,15,58,12.80
2010,05,23,15,59,12.80
2010,05,23,16,00,12.80
2010,05,23,16,01,12.80
2010,05,23,16,02,12.70
2010,05,23,16,03,12.60
2010,05,23,16,04,12.60
2010,05,23,16,05,12.50
2010,05,23,16,06,12.50
2010,05,23,16,07,12.40
2010,05,23,16,08,12.30
2010,05,23,16,09,12.30
2010,05,23,16,10,12.30
2010,05,23,16,11,12.30
2010,05,23,16,12,12.30
2010,05,23,16,13,12.30
2010,05,23,16,14,12.40
2010,05,23,16,15,12.40
2010,05,23,16,16,12.50
2010,05,23,16,17,12.60
2010,05,23,16,18,12.60
2010,05,23,16,19,12.60
2010,05,23,16,20,12.60
2010,05,23,16,21,12.70
2010,05,23,16,22,12.70
2010,05,23,16,23,12.70
2010,05,23,16,24,12.80
2010,05,23,16,25,12.80
2010,05,23,16,26,12.90
2010,05,23,16,27,13.00
2010,05,23,16,28,13.10
2010,05,23,16,29,13.10
2010,05,23,16,30,13.20
2010,05,23,16,31,13.20
2010,05,23,16,32,13.20
2010,05,23,16,33,13.20
2010,05,23,16,34,13.10
2010,05,23,16,35,13.10
2010,05,23,16,36,13.10
2010,05,23,16,37,13.10
2010,05,23,16,38,13.00
2010,05,23,16,39,12.90
2010,05,23,16,40,12.90
2010,05,23,16,41,13.00
2010,05,23,16,42,13.00
2010,05,23,16,43,13.10
2010,05,23,16,44,13.10
2010,05,23,16,45,13.20
2010,05,23,16,46,13.30
2010,05,23,16,47,13.30
2010,05,23,16,48,13.30
2010,05,23,16,49,13.40
2010,05,23,16,50,13.50
2010,05,23,16,51,13.60
2010,05,23,16,52,13.70
2010,05,23,16,53,13.80
2010,05,23,16,54,13.80
2010,05,23,16,55,13.80
2010,05,23,16,56,13.70
2010,05,23,16,57,13.60
2010,05,23,16,58,13.50
2010,05,23,16,59,13.40
2010,05,23,17,00,13.30
2010,05,23,17,01,13.20
2010,05,23,17,02,13.20
2010,05,23,17,03,13.10
2010,05,23,17,04,13.00
2010,05,23,17,05,13.00
2010,05,23,17,06,12.90
2010,05,23,17,07,12.90
2010,05,23,17,08,12.90
2010,05,23,17,09,12.90
2010,05,23,17,10,12.90
2010,05,23,17,11,12.90
2010,05,23,17,12,12.90
2010,05,23,17,13,12.80
2010,05,23,17,14,12.80
2010,05,23,17,15,12.80
2010,05,23,17,16,12.80
2010,05,23,17,17,12.80
2010,05,23,17,18,12.80
2010,05,23,17,19,12.90
2010,05,23,17,20,13.00
2010,05,23,17,21,13.10
2010,05,23,17,22,13.20
2010,05,23,17,23,13.20
2010,05,23,17,24,13.30
2010,05,23,17,25,13.30
2010,05,23,17,26,13.30
2010,05,23,17,27,13.30
2010,05,23,17,28,13.30
2010,05,23,17,29,13.30
2010,05,23,17,30,13.40
2010,05,23,17,31,13.40
2010,05,23,17,32,13.40
2010,05,23,17,33,13.40
2010,05,23,17,34,13.40
2010,05,23,17,35,13.40
2010,05,23,17,36,13.40
2010,05,23,17,37,13.30
2010,05,23,17,38,13.30
2010,05,23,17,39,13.30
2010,05,23,17,40,13.20
2010,05,23,17,41,13.20
2010,05,23,17,42,13.30
2010,05,23,17,43,13.30
2010,05,23,17,44,13.30
2010,05,23,17,45,13.40
2010,05,23,17,46,13.40
2010,05,23,17,47,13.40